Weather History for Houghton Lake, MI

Change the Weather History Date:

Monday, November 5, 2012

  Actual Average Record
Temperature  
Mean Temperature 28 °F 39 °F  
Max Temperature 35 °F 47 °F 70 °F (1978)
Min Temperature 20 °F 31 °F 4 °F (1951)
Degree Days  
Heating Degree Days 37 26  
Month to date heating degree days 150 127  
Since 1 July heating degree days 991 1105  
Moisture  
Dew Point 21 °F    
Average Humidity 74    
Maximum Humidity 92    
Minimum Humidity 56    
Precipitation  
Precipitation T in 0.08 in 1.65 in (1988)
Month to date precipitation 0.09 0.40  
Year to date precipitation 29.82 25.18  
Snow  
Snow T in 0.10 in 7.10 in (1990)
Month to date snowfall 0.1 0.6  
Since 1 July snowfall 0.1 1.2  
Snow Depth 0.00 in    
Sea Level Pressure  
Sea Level Pressure 30.23 in    
Wind  
Wind Speed 2 mph (NE)    
Max Wind Speed 12 mph    
Max Gust Speed 14 mph    
Visibility 10 miles    
Events      
T = Trace of Precipitation, MM = Missing Value Source: NWS Daily Summary

Daily Weather History Graph

Daily Weather History Graph

Search for Another Location

Airport:

Trip Planner

Search our weather history database for the weather conditions in past years. The results will help you decide how hot, cold, wet, or windy it might be!

Date:

Astronomy

Nov. 05, 2012 Rise Set
Actual Time 7:21 AM EST 5:22 PM EST
Civil Twilight 6:51 AM EST 5:52 PM EST
Nautical Twilight 6:16 AM EST 6:27 PM EST
Astronomical Twilight 5:42 AM EST 7:01 PM EST
Moon 10:59 PM EST (11/5) 12:41 PM EST (11/5)
Length of Visible Light 11h 01m
Length of Day
10h 00m
Waning Gibbous, 63% of the Moon is Illuminated
Nov 5
Waning Gibbous
Nov 6
Last Quarter
Nov 13
New
Nov 20
First Quarter
Nov 28
Full

Hourly Weather History & Observations

Time (EST) Temp. Windchill Dew Point Humidity Pressure Visibility Wind Dir Wind Speed Gust Speed Precip Events Conditions
12:07 AM 26.6 °F 22.6 °F 23.0 °F 86% 30.18 in 10.0 mi NNE 3.5 mph - N/A   Mostly Cloudy
12:15 AM 26.6 °F 22.6 °F 21.2 °F 80% 30.18 in 10.0 mi North 3.5 mph - N/A   Partly Cloudy
12:53 AM 26.1 °F - 21.9 °F 84% 30.23 in 10.0 mi Calm Calm - N/A   Clear
1:53 AM 23.0 °F - 19.9 °F 88% 30.23 in 10.0 mi Calm Calm - N/A   Clear
2:53 AM 21.9 °F - 19.9 °F 92% 30.23 in 10.0 mi Calm Calm - N/A   Partly Cloudy
3:23 AM 21.2 °F - 19.4 °F 93% 30.19 in 10.0 mi Calm Calm - N/A   Mostly Cloudy
3:53 AM 24.1 °F - 19.9 °F 84% 30.23 in 10.0 mi Calm Calm - N/A   Overcast
4:53 AM 26.1 °F - 23.0 °F 88% 30.24 in 10.0 mi Calm Calm - N/A   Overcast
5:53 AM 28.0 °F 24.2 °F 25.0 °F 88% 30.25 in 10.0 mi NE 3.5 mph - N/A   Overcast
6:53 AM 28.0 °F 24.2 °F 24.1 °F 85% 30.25 in 10.0 mi NE 3.5 mph - N/A   Overcast
7:53 AM 28.0 °F 22.8 °F 24.1 °F 85% 30.26 in 10.0 mi ENE 4.6 mph - N/A   Overcast
8:53 AM 28.9 °F 20.4 °F 21.9 °F 75% 30.27 in 10.0 mi NE 9.2 mph - N/A   Overcast
9:53 AM 30.0 °F 22.4 °F 21.0 °F 69% 30.28 in 10.0 mi NNE 8.1 mph - N/A   Overcast
10:53 AM 30.9 °F 24.3 °F 21.9 °F 69% 30.28 in 10.0 mi ENE 6.9 mph - N/A   Overcast
11:53 AM 32.0 °F 26.4 °F 21.0 °F 64% 30.28 in 10.0 mi Variable 5.8 mph - N/A   Overcast
12:53 PM 32.0 °F - 19.9 °F 61% 30.27 in 10.0 mi Calm Calm - N/A   Overcast
1:53 PM 33.1 °F 27.7 °F 19.9 °F 59% 30.25 in 10.0 mi Variable 5.8 mph - N/A   Overcast
2:53 PM 33.1 °F - 19.0 °F 56% 30.24 in 10.0 mi Calm Calm - N/A   Overcast
3:12 PM 33.8 °F 30.8 °F 21.2 °F 60% 30.18 in 10.0 mi Variable 3.5 mph - N/A   Overcast
3:53 PM 33.1 °F - 19.9 °F 59% 30.22 in 10.0 mi Calm Calm - N/A   Overcast
4:53 PM 32.0 °F - 19.9 °F 61% 30.23 in 10.0 mi Calm Calm - N/A   Mostly Cloudy
5:53 PM 28.9 °F - 19.0 °F 67% 30.23 in 10.0 mi Calm Calm - N/A   Clear
6:53 PM 25.0 °F - 19.9 °F 81% 30.24 in 10.0 mi Calm Calm - N/A   Clear
7:53 PM 24.1 °F 19.7 °F 19.9 °F 84% 30.23 in 10.0 mi ENE 3.5 mph - N/A   Clear
8:53 PM 21.0 °F - 18.0 °F 88% 30.22 in 10.0 mi Calm Calm - N/A   Clear
9:53 PM 21.0 °F - 18.0 °F 88% 30.22 in 10.0 mi Calm Calm - N/A   Mostly Cloudy
10:53 PM 21.0 °F - 18.0 °F 88% 30.20 in 10.0 mi Calm Calm - N/A   Overcast
11:53 PM 25.0 °F 20.7 °F 21.0 °F 85% 30.18 in 10.0 mi East 3.5 mph - N/A   Overcast